Regional Weather Roundup
Issued by NWS Mt. Holly, NJ

Home | Current Version | Previous Version | Text Only | Print | Product List | Glossary On
Versions: 1 2 3 4 5 6 7 8 9 10 11 12 13 14 15 16 17 18 19 20 21 22 23 24 25 26 27 28 29 30 31 32 33 34 35 36 37 38 39 40 41 42 43 44 45 46 47 48 49 50
000
ASUS41 KPHI 010012
RWRPHI

REGIONAL WEATHER ROUNDUP
NATIONAL WEATHER SERVICE MOUNT HOLLY NJ
800 PM EDT SAT APR 30 2016

NOTE:  "FAIR" INDICATES FEW OR NO CLOUDS BELOW 12,000 FEET WITH NO
SIGNIFICANT WEATHER AND/OR OBSTRUCTIONS TO VISIBILITY.

 * = STATION DOES NOT REPORT PRECIPITATION (E.G. RAIN, SNOW, ETC.)
        OR FOG.

NJZ015>026-010100-
SOUTHERN NEW JERSEY

CITY           SKY/WX    TMP DP  RH WIND       PRES   REMARKS
POMONA         CLEAR     47  37  68 E6        30.25S
6HR MIN TEMP:  47; 6HR MAX TEMP:  58;

WILDWOOD*      CLOUDY    50  37  62 E5        30.25S
MILLVILLE      CLOUDY    52  36  54 SE5       30.24R
WRIGHTSTOWN    PTCLDY    50  37  59 E6        30.22R
MOUNT HOLLY    MOCLDY    53  36  52 SE3       30.23S
TRENTON        CLOUDY    55  37  50 SE7       30.22S
6HR MIN TEMP:  55; 6HR MAX TEMP:  61;


$$
NJZ001>014-010100-
NORTHERN NEW JERSEY

CITY           SKY/WX    TMP DP  RH WIND       PRES   REMARKS
SUSSEX         CLOUDY    57  42  57 SW3       30.21S
ANDOVER*         N/A     56  42  59 SW5       30.20F
MORRISTOWN     MOCLDY    57  34  41 S5        30.23R
NEWARK         PTCLDY    56  33  42 S7        30.23S
TETERBORO      CLEAR     54  34  46 S8        30.22R
CALDWELL       CLEAR     56  28  34 S5        30.22S
SOMERVILLE     CLOUDY    56  41  57 S3        30.20F
ALLAIRE*       CLEAR     50  36  58 SE5       30.26S
TOMS RIVER*    CLEAR     48  36  61 SE5       30.26S

$$
PAZ043-044-047-054-055-060>062-066>071-010100-
EASTERN PENNSYLVANIA

CITY           SKY/WX    TMP DP  RH WIND       PRES   REMARKS
PHILADELPHIA   CLOUDY    58  43  57 S10       30.23R
6HR MIN TEMP:  58; 6HR MAX TEMP:  64;

NORTH PHILA    CLOUDY    58  40  51 SE10      30.24R
BLUE BELL*     CLOUDY    54  43  66 CALM      30.21S
DOYLESTOWN     CLOUDY    54  42  64 CALM      30.21S
QUAKERTOWN*    CLOUDY    55  41  58 CALM      30.21F
PERKASIE*      CLOUDY    52  46  82 CALM      30.22F
POTTSTOWN      CLOUDY    56  42  59 CALM      30.22S
LANCASTER      CLOUDY    54  46  74 SE6       30.19F
COATESVILLE    CLOUDY    55  46  71 CALM      30.21F
READING        CLOUDY    57  41  55 SE7       30.19F
6HR MIN TEMP:  56; 6HR MAX TEMP:  59;

ALLENTOWN      CLOUDY    55  42  61 CALM      30.21S
6HR MIN TEMP:  55; 6HR MAX TEMP:  59;

MOUNT POCONO   CLOUDY    49  39  68 S7        30.19F
6HR MIN TEMP:  49; 6HR MAX TEMP:  51;

HAZLETON       CLOUDY    50  39  66 SE3       30.22S
LEHIGHTON      CLOUDY    54  41  62 CALM      30.21F
WILKES BARRE   CLOUDY    55  40  56 VRB6      30.18F

$$
DEZALL-MDZ008-012-015-019-020-010100-
DELAWARE AND EASTERN MARYLAND

CITY           SKY/WX    TMP DP  RH WIND       PRES   REMARKS
WILMINGTON     CLOUDY    54  43  66 S13       30.23S
6HR MIN TEMP:  54; 6HR MAX TEMP:  61;

DOVER          CLOUDY    52  44  75 E8        30.22S
GEORGETOWN     CLOUDY    50  40  68 E8        30.23F
6HR MIN TEMP:  50; 6HR MAX TEMP:  58;

EASTON         CLOUDY   N/A N/A N/A E5          N/A
PATUXENT       CLOUDY    55  47  74 CALM      30.21S
OCEAN CITY     PTCLDY    51  44  77 NE7       30.24S
WALLOPS ISLAND CLOUDY    52  45  77 E12       30.23S
CAMBRIDGE      CLOUDY    54  46  76 E8        30.21R
SALISBURY      CLOUDY    51  42  71 E7        30.22F

$$
PAZ001-021-NYZ056-072-MDZ011-DCZ001-010100-
OTHER NEARBY LOCATIONS

CITY           SKY/WX    TMP DP  RH WIND       PRES   REMARKS
HARRISBURG     CLOUDY    57  45  64 SE5       30.17F
STATE COLLEGE  CLOUDY    52  45  76 SE5       30.15F
WILLIAMSPORT   CLOUDY    55  41  59 E8        30.17S
BINGHAMTON     CLOUDY    50  40  68 S3        30.18R
NEW YORK CITY  CLEAR     53  33  46 S7        30.26R
BALTIMORE      CLOUDY    56  47  71 S3        30.20R
WASHINGTON DC  CLOUDY    56  48  74 SE7       30.20S

$$



USA.gov is the U.S. government's official web portal to all federal, state and local government web resources and services.